KQ4KX Weather Reports


time (UTC)temp
F
wind
direction
speed
knots
gust
knots
rain 1hr
in
rain 24hr
in
rain mn
in
humidity
%
barometer
mb
20260505212933 86 113 2.6 7.0 0.00 0.00 0.00 53 1014.3
20260505212403 86 106 2.6 7.0 0.00 0.00 0.00 53 1014.4
20260505211903 86 100 3.5 9.6 0.00 0.00 0.00 56 1014.4
20260505211335 86 97 5.2 9.6 0.00 0.00 0.00 53 1014.3
20260505210833 86 96 5.2 9.6 0.00 0.00 0.00 54 1014.3
20260505205833 87 100 5.2 9.6 0.00 0.00 0.00 52 1014.4
20260505205305 88 104 3.5 9.6 0.00 0.00 0.00 51 1014.3
20260505204803 88 112 1.7 6.1 0.00 0.00 0.00 52 1014.3
20260505204233 88 107 2.6 6.1 0.00 0.00 0.00 49 1014.4
20260505203733 88 102 3.5 6.1 0.00 0.00 0.00 50 1014.4
20260505203233 88 93 1.7 6.1 0.00 0.00 0.00 52 1014.4
20260505202703 88 66 1.7 3.5 0.00 0.00 0.00 49 1014.5
20260505202203 88 79 1.7 3.5 0.00 0.00 0.00 49 1014.5
20260505201633 88 96 2.6 7.8 0.00 0.00 0.00 49 1014.6
20260505201103 87 94 2.6 7.8 0.00 0.00 0.00 53 1014.7
20260505200033 87 90 3.5 7.0 0.00 0.00 0.00 51 1014.7
20260505194433 88 94 3.5 10.4 0.00 0.00 0.00 51 1014.8
20260505193433 88 101 4.3 8.7 0.00 0.00 0.00 48 1015.0
20260505192903 88 97 3.5 8.7 0.00 0.00 0.00 51 1015.0
20260505191833 88 100 2.6 7.0 0.00 0.00 0.00 52 1015.1
20260505191303 88 103 4.3 8.7 0.00 0.00 0.00 51 1015.2
20260505190803 88 95 4.3 8.7 0.00 0.00 0.00 52 1015.2
20260505190233 88 92 4.3 11.3 0.00 0.00 0.00 51 1015.3
20260505185733 88 94 3.5 11.3 0.00 0.00 0.00 53 1015.3
20260505185203 89 100 3.5 10.4 0.00 0.00 0.00 49 1015.4
20260505184703 88 102 4.3 11.3 0.00 0.00 0.00 53 1015.4
20260505184203 88 91 3.5 11.3 0.00 0.00 0.00 53 1015.5
20260505183703 87 88 2.6 6.1 0.00 0.00 0.00 53 1015.5
20260505183203 87 101 3.5 9.6 0.00 0.00 0.00 54 1015.6
20260505182703 87 96 3.5 9.6 0.00 0.00 0.00 52 1015.7
20260505181603 87 96 3.5 7.8 0.00 0.00 0.00 50 1016.0
20260505181103 87 99 4.3 8.7 0.00 0.00 0.00 51 1016.1
20260505180533 88 104 4.3 8.7 0.00 0.00 0.00 53 1016.0
20260505180033 88 105 4.3 8.7 0.00 0.00 0.00 53 1016.1
20260505174403 87 95 4.3 10.4 0.00 0.00 0.00 55 1016.3
20260505173333 87 118 2.6 7.0 0.00 0.00 0.00 55 1016.4
20260505172803 87 110 2.6 7.0 0.00 0.00 0.00 53 1016.4
20260505172233 86 94 1.7 7.0 0.00 0.00 0.00 55 1016.4
20260505171733 86 99 4.3 9.6 0.00 0.00 0.00 54 1016.5
20260505171233 86 101 6.1 10.4 0.00 0.00 0.00 53 1016.5
20260505170733 87 97 6.1 10.4 0.00 0.00 0.00 54 1016.5
20260505170203 86 93 4.3 8.7 0.00 0.00 0.00 54 1016.5
20260505165703 86 93 3.5 7.8 0.00 0.00 0.00 56 1016.5
20260505165203 86 97 5.2 9.6 0.00 0.00 0.00 53 1016.7
20260505164633 86 100 4.3 10.4 0.00 0.00 0.00 58 1016.7
20260505164135 86 89 3.5 8.7 0.00 0.00 0.00 57 1016.6
20260505163634 85 92 5.2 10.4 0.00 0.00 0.00 57 1016.5
20260505163103 86 100 5.2 10.4 0.00 0.00 0.00 56 1016.5
20260505162603 86 100 4.3 10.4 0.00 0.00 0.00 59 1016.7
20260505162033 84 95 5.2 11.3 0.00 0.00 0.00 59 1016.6
20260505151802 83 103 7.8 12.2 0.00 0.00 0.00 61 1016.6
20260505151303 82 100 7.8 12.2 0.00 0.00 0.00 64 1016.7
20260505150803 82 96 7.8 12.2 0.00 0.00 0.00 67 1016.7
20260505150233 81 95 7.8 13.0 0.00 0.00 0.00 65 1016.6
20260505140402 78 98 8.7 13.0 0.00 0.00 0.00 75 1016.1
20260505130203 75 98 7.8 12.2 0.00 0.00 0.00 81 1016.2
20260505124103 73 96 6.1 9.6 0.00 0.00 0.00 85 1016.3
20260505123533 72 102 6.1 9.6 0.00 0.00 0.00 86 1016.3
20260505123033 72 99 5.2 9.6 0.00 0.00 0.00 86 1016.3
20260505121432 71 99 5.2 7.8 0.00 0.00 0.00 88 1016.3
20260505120933 71 96 5.2 7.8 0.00 0.00 0.00 89 1016.3
20260505120433 71 94 4.3 7.8 0.00 0.00 0.00 89 1016.2
20260505114903 69 87 2.6 6.1 0.00 0.00 0.00 91 1016.0
20260505114403 69 88 2.6 5.2 0.00 0.00 0.00 91 1016.0
20260505113332 69 89 3.5 7.8 0.00 0.00 0.00 92 1015.7
20260505112304 68 91 3.5 7.8 0.00 0.00 0.00 93 1015.5
20260505110703 67 91 2.6 6.1 0.00 0.00 0.00 94 1015.3
20260505110202 67 88 1.7 5.2 0.00 0.00 0.00 94 1015.4
20260505101633 67 88 1.7 5.2 0.00 0.00 0.00 94 1015.0
20260505101134 67 91 1.7 5.2 0.00 0.00 0.00 93 1015.1
20260505095104 67 90 2.6 7.0 0.00 0.00 0.00 93 1014.7
20260505093032 67 91 4.3 7.0 0.00 0.00 0.00 93 1014.6
20260505091433 67 95 4.3 7.8 0.00 0.00 0.00 92 1014.7
20260505090903 67 96 4.3 7.0 0.00 0.00 0.00 92 1014.7
20260505090402 67 92 4.3 7.0 0.00 0.00 0.00 92 1014.5
20260505085903 67 91 3.5 7.0 0.00 0.00 0.00 92 1014.5
20260505085403 68 88 2.6 6.1 0.00 0.00 0.00 92 1014.6
20260505084832 68 88 2.6 6.1 0.00 0.00 0.00 92 1014.6
20260505083832 68 86 2.6 7.0 0.00 0.00 0.00 92 1014.7
20260505082834 68 83 3.5 8.7 0.00 0.00 0.00 91 1014.5
20260505081304 68 80 2.6 6.1 0.00 0.00 0.00 92 1014.5
20260505080233 68 83 1.7 6.1 0.00 0.00 0.00 92 1014.6
20260505075732 68 88 1.7 6.1 0.00 0.00 0.00 91 1014.5
20260505075202 68 88 1.7 6.1 0.00 0.00 0.00 91 1014.7
20260505074633 68 92 2.6 5.2 0.00 0.00 0.00 92 1014.7
20260505074134 68 95 3.5 6.1 0.00 0.00 0.00 91 1014.6
20260505073104 68 90 3.5 7.0 0.00 0.00 0.00 91 1014.7
20260505072533 68 92 3.5 7.0 0.00 0.00 0.00 90 1014.7
20260505072032 68 91 2.6 7.0 0.00 0.00 0.00 90 1014.7
20260505071532 68 87 2.6 6.1 0.00 0.00 0.00 90 1014.6
20260505071002 68 88 3.5 6.1 0.00 0.00 0.00 90 1014.7
20260505070502 68 90 3.5 7.0 0.00 0.00 0.00 89 1014.7
20260505070002 68 87 3.5 7.0 0.00 0.00 0.00 89 1014.7
20260505065502 68 86 3.5 7.0 0.00 0.00 0.00 89 1014.8
20260505064933 68 85 2.6 7.0 0.00 0.00 0.00 89 1014.7
20260505064403 68 81 2.6 6.1 0.00 0.00 0.00 89 1015.0
20260505062332 69 90 4.3 7.8 0.00 0.00 0.00 88 1015.2
20260505061832 69 91 4.3 7.8 0.00 0.00 0.00 87 1015.2
20260505061302 69 90 4.3 7.8 0.00 0.00 0.00 87 1015.3
20260505060232 69 95 5.2 7.8 0.00 0.00 0.00 88 1015.3
20260505055702 69 95 5.2 7.8 0.00 0.00 0.00 88 1015.4
20260505055202 69 94 4.3 7.8 0.00 0.00 0.00 87 1015.6
20260505054633 69 93 3.5 7.0 0.00 0.00 0.00 87 1015.7
20260505054104 69 89 3.5 7.0 0.00 0.00 0.00 87 1015.8
20260505053104 69 93 4.3 7.8 0.00 0.00 0.00 87 1015.8
20260505052532 69 89 3.5 7.0 0.00 0.00 0.00 87 1016.0
20260505052032 69 84 2.6 6.1 0.00 0.00 0.00 86 1016.0
20260505051532 69 89 2.6 7.0 0.00 0.00 0.00 87 1016.2
20260505051002 69 91 3.5 7.0 0.00 0.00 0.00 86 1016.0
20260505050502 70 86 3.5 7.0 0.00 0.00 0.00 86 1016.2
20260505041732 70 88 4.3 8.7 0.00 0.00 0.00 84 1016.4
20260505041202 70 90 5.2 8.7 0.00 0.00 0.00 83 1016.5
20260505040702 70 91 5.2 8.7 0.00 0.00 0.00 84 1016.5
20260505040203 70 90 5.2 9.6 0.00 0.00 0.00 84 1016.3
20260505035702 70 88 5.2 9.6 0.00 0.00 0.00 84 1016.3
20260505034602 70 92 6.1 10.4 0.00 0.00 0.00 84 1016.5
20260505034104 70 92 7.0 11.3 0.00 0.00 0.00 84 1016.5
20260505033602 70 97 7.0 11.3 0.00 0.00 0.00 84 1016.4
20260505033104 70 99 7.0 9.6 0.00 0.00 0.00 83 1016.4
20260505032032 71 99 7.0 11.3 0.00 0.00 0.00 83 1016.4
20260505031502 71 99 7.8 12.2 0.00 0.00 0.00 82 1016.4
20260505031002 71 99 8.7 12.2 0.00 0.00 0.00 82 1016.6
20260505030502 71 102 7.8 12.2 0.00 0.00 0.00 82 1016.5
20260505024903 71 96 7.0 12.2 0.00 0.00 0.00 82 1016.3
20260505023302 71 100 7.8 13.0 0.00 0.00 0.00 81 1016.2
20260505022232 72 97 7.8 11.3 0.00 0.00 0.00 81 1016.2
20260505021732 72 98 7.8 11.3 0.00 0.00 0.00 80 1016.2
20260505021232 72 99 7.8 11.3 0.00 0.00 0.00 81 1016.0
20260505020702 72 100 7.8 12.2 0.00 0.00 0.00 80 1016.1
20260505020132 72 98 7.8 12.2 0.00 0.00 0.00 79 1016.0
20260505015602 72 96 7.8 13.9 0.00 0.00 0.00 79 1016.0
20260505014532 72 96 7.0 12.2 0.00 0.00 0.00 78 1015.9
20260505014002 72 98 7.8 12.2 0.00 0.00 0.00 78 1016.0
20260505013502 72 98 8.7 13.0 0.00 0.00 0.00 78 1016.0
20260505012933 72 96 8.7 13.0 0.00 0.00 0.00 77 1015.8
20260505010902 73 100 9.6 14.8 0.00 0.00 0.00 77 1015.6
20260505010332 73 101 9.6 13.9 0.00 0.00 0.00 77 1015.4
20260505005332 73 95 7.8 12.2 0.00 0.00 0.00 76 1015.5
20260505004803 73 94 7.8 11.3 0.00 0.00 0.00 76 1015.6
20260505004302 74 98 7.8 12.2 0.00 0.00 0.00 75 1015.5
20260505003302 74 104 10.4 15.6 0.00 0.00 0.00 74 1015.5
20260505002732 74 100 10.4 16.5 0.00 0.00 0.00 74 1015.4
20260505002232 74 100 10.4 16.5 0.00 0.00 0.00 74 1015.2
20260505001702 74 102 10.4 15.6 0.00 0.00 0.00 73 1015.2
20260505000632 75 96 8.7 15.6 0.00 0.00 0.00 73 1014.9
20260505000104 75 93 8.7 15.6 0.00 0.00 0.00 72 1014.9
20260504235532 75 96 9.6 15.6 0.00 0.00 0.00 72 1014.9
20260504235032 75 100 10.4 13.9 0.00 0.00 0.00 72 1014.9
20260504234532 76 100 9.6 14.8 0.00 0.00 0.00 71 1014.9
20260504234033 76 96 10.4 16.5 0.00 0.00 0.00 72 1014.6
20260504233503 76 94 11.3 16.5 0.00 0.00 0.00 72 1014.7
20260504233002 76 99 11.3 16.5 0.00 0.00 0.00 71 1014.6
20260504232433 76 95 11.3 15.6 0.00 0.00 0.00 71 1014.7
20260504231902 76 94 10.4 17.4 0.00 0.00 0.00 71 1014.7
20260504231402 76 94 9.6 17.4 0.00 0.00 0.00 70 1014.7
20260504225832 77 100 11.3 18.2 0.00 0.00 0.00 70 1014.6
20260504224732 78 103 12.2 18.2 0.00 0.00 0.00 69 1014.6
20260504224232 78 97 10.4 18.2 0.00 0.00 0.00 69 1014.6
20260504223702 78 87 8.7 17.4 0.00 0.00 0.00 68 1014.7
20260504223202 78 86 7.8 14.8 0.00 0.00 0.00 69 1014.5
20260504222703 78 91 8.7 14.8 0.00 0.00 0.00 68 1014.5
20260504221603 78 97 10.4 15.6 0.00 0.00 0.00 69 1014.6
20260504220603 78 90 7.8 15.6 0.00 0.00 0.00 67 1014.5
20260504215032 79 93 11.3 18.2 0.00 0.00 0.00 66 1014.5
20260504214503 79 99 12.2 18.2 0.00 0.00 0.00 66 1014.5
20260504214002 80 99 11.3 17.4 0.00 0.00 0.00 66 1014.5
20260504213502 80 95 10.4 17.4 0.00 0.00 0.00 66 1014.5